Location: Cucq
(50.4773°N, 1.6202°E)
Time: 04:39:35
(UTC+00:00)

Cosmos 1674 - Pass Details

Date: 07 August 2020
Orbit: 495 x 517 km, 82.5° (Epoch: 19 September)

Event Time Altitude Azimuth Distance (km) Brightness Sun altitude
Rises 01:33:25 0° 350° (N) 2,596 7.2 -20.1°
Reaches altitude 10° 01:35:32 10° 350° (N) 1,709 6.1 -19.9°
Maximum altitude 01:39:17 88° 79° (ENE) 505 2.5 -19.7°
Enters shadow 01:39:59 58° 167° (SSE) 589 2.6 -19.6°
